User: anonymous
Location: Unspecified
(0.0000°N, 0.0000°E)
Time: 16:47:03
(UTC+00:00)
Language:

KORONAS-FOTON - Orbit

View from above orbital plane
View from above orbital plane
View from above satellite
View from above satellite

Ground track
Ground track

The orbit data is extracted from the following two-line orbital elements,

1 33504U 09003A   14209.07915513  .00001499  00000-0  88033-4 0   893
2 33504 082.4420 199.2272 0022983 145.2446 281.4668 15.10767511301899
Epoch (UTC): 28 July 2014 01:53:59
Eccentricity: 0.0022983
inclination: 82.4420°
perigee height: 518 km
apogee height: 550 km
right ascension of ascending node: 199.2272°
argument of perigee: 145.2446°
revolutions per day: 15.10767511
mean anomaly at epoch: 281.4668°
orbit number at epoch: 30189

The dashed part of the orbit path shows where the satellite is in the earth's shadow,  

DLR